Location: Condette
(50.6582°N, 1.6339°E)
Time: 15:46:18
(UTC+00:00)

Daily predictions for brighter satellites

Satellite Brightness Start Highest point End
(mag) Time Altitude Azimuth Time Altitude Azimuth Time Altitude Azimuth
Cosmos 2233 Rocket 4.0 17:30:24 10° N 17:36:39 65° ENE 17:42:55 10° SSE
NOSS 0 Rocket 4.0 17:32:19 10° NNW 17:38:37 80° ENE 17:44:51 10° SE
ARIANE 6 FM1 Upper Stage 4.1 17:38:29 10° NNW 17:41:35 21° NNE 17:44:40 10° ENE
SMAP 4.3 17:38:24 10° S 17:42:54 49° W 17:47:27 10° NNW
Thor Agena Rocket 4.3 17:39:14 10° S 17:44:16 59° WSW 17:49:24 10° NNW
NOSS 3-4 (A) 3.9 17:37:56 10° NW 17:44:18 57° NE 17:51:48 10° ESE
NOSS 3-4 (C) 3.9 17:38:12 10° NW 17:44:35 56° NE 17:52:05 10° ESE
Cosmos 1725 Rocket 4.2 17:39:10 10° NNW 17:45:26 81° W 17:51:43 10° S
IRS-1C 4.4 17:40:37 10° SSE 17:45:56 77° WSW 17:51:18 10° NNW
Cosmos 2151 Rocket 3.6 17:44:40 10° N 17:49:12 85° ENE 17:53:42 10° S
Meteor 1-11 4.2 17:46:41 10° S 17:52:18 76° E 17:58:03 10° NNE
Cosmos 1607 3.9 17:49:22 10° SW 17:55:31 86° SE 18:01:46 10° NE
Radarsat Rocket 4.1 17:49:52 10° SE 17:55:38 59° ENE 18:01:56 10° NNW
Cosmos 2082 Rocket 4.5 17:53:11 10° NW 17:55:59 14° NNW 17:58:48 10° N
Cosmos 1455 Rocket 3.6 17:52:48 10° N 17:56:47 36° ENE 18:00:46 10° SE
UNK 4.3 17:52:37 10° N 17:57:08 61° WNW 18:01:38 10° SSW
Cosmos 44 Rocket 4.5 17:55:26 10° SSE 17:59:19 24° ESE 18:03:11 11° ENE
Cosmos 2228 4.0 17:56:13 10° NNE 17:59:36 23° ENE 18:03:00 10° ESE
YAOGAN 1 2.5 17:55:44 10° SSE 17:59:56 66° ENE 18:04:11 10° N
Cosmos 1975 Rocket 4.4 17:57:10 10° SE 18:00:11 19° E 18:03:12 10° NE
COSMO-SKYMED 1 3.0 17:56:31 10° NNE 18:00:21 36° E 18:04:10 10° SSE
ATLAS 2AS CENTAUR R/B 3.9 17:54:33 10° W 18:00:45 34° NNW 18:06:52 10° NE
PSLV R/B 3.8 17:56:53 10° SE 18:00:46 43° ENE 18:04:40 10° N
Cosmos 1782 4.1 17:59:05 10° NNE 18:01:24 16° ENE 18:03:12 12° E
Cosmos 2297 Rocket 2.6 17:56:46 10° S 18:02:06 44° ESE 18:07:27 10° NE
Lacrosse 5 rocket 1.8 17:59:48 10° W 18:03:09 43° NNW 18:06:24 11° NE
DNEPR-1 R/B 4.3 17:59:45 10° NNW 18:04:17 45° NE 18:09:37 10° ESE
SPOT 1/Viking Rocket 3.9 18:01:51 10° S 18:06:57 70° WSW 18:12:06 10° NNW
Cosmos 2061 Rocket 4.1 18:00:42 10° N 18:07:08 90° SW 18:13:26 10° S
Aureole 3 Rocket 2.6 18:03:19 10° N 18:07:19 57° ENE 18:10:31 10° SSE
Meteor 2-1 Rocket 4.4 18:03:43 10° NNW 18:09:33 87° W 18:15:28 10° S
CZ-2D R/B 3.2 18:05:52 10° SSE 18:09:46 71° ENE 18:13:47 10° N
Okean 1 Rocket 3.1 18:07:48 10° N 18:12:13 86° W 18:16:35 10° S
Cosmos 1356 Rocket 4.3 18:08:49 10° NNW 18:12:38 50° W 18:16:29 10° S
SL-16 R/B 4.1 18:07:05 10° N 18:12:38 36° WNW 18:18:12 10° WSW
CZ-4C R/B 1.9 18:08:48 10° SW 18:13:08 82° NW 18:18:47 10° NE
Cosmos 1464 Rocket 4.4 18:10:31 10° N 18:16:33 42° ENE 18:22:31 10° SE
Okean 2 Rocket 3.5 18:13:06 10° NNW 18:17:28 67° W 18:21:48 10° S
Cosmos 2344 4.4 18:13:32 10° SSE 18:19:35 25° ESE 18:23:43 15° ENE
Cosmos 2221 Rocket 3.5 18:15:47 10° S 18:20:15 81° E 18:24:47 10° NNE
USA 267 3.4 18:15:08 11° ENE 18:21:29 78° NNW 18:28:02 10° WSW
SJ-6B 3.1 18:21:30 10° SE 18:24:39 34° ENE 18:27:49 10° N
Cosmos 1980 3.9 18:24:10 10° NNW 18:29:50 75° WSW 18:35:28 10° SSE
Cosmos 2263 Rocket 3.3 18:26:38 10° SSE 18:30:46 21° E 18:31:44 20° E
Cosmos 1025 Rocket 3.5 18:26:34 10° SSW 18:30:50 63° WNW 18:35:10 10° N
Sich 1 Rocket 4.3 18:27:58 10° NNW 18:32:28 59° W 18:36:56 10° S
COSMOS 2428 4.4 18:27:44 10° NW 18:32:55 36° WSW 18:38:04 10° S
Cosmos 2237 Rocket 2.4 18:29:26 10° NNW 18:35:07 74° WSW 18:40:47 10° SSE
Meteor 1-31 Rocket 3.7 18:36:36 24° NE 18:36:36 24° NE 18:38:59 10° N
SKYMED 2 4.2 18:32:44 10° N 18:37:02 59° WNW 18:41:18 10° SSW
Meteor 1-27 4.2 18:31:51 10° N 18:37:41 83° ENE 18:43:31 10° SSE
SeaSat 1 4.2 18:38:06 10° S 18:42:32 34° WSW 18:46:59 10° NW
Cosmos 1570 Rocket 3.9 18:38:08 10° SSW 18:43:23 72° ESE 18:48:37 10° NNE
Resurs 01 Rocket 1.5 18:39:34 10° SSE 18:43:58 85° ENE 18:48:24 10° NNW
SPOT 5 3.4 18:45:52 23° ESE 18:48:24 39° ENE 18:53:07 10° N
NOSS 3-3 (C) 4.0 18:44:41 10° SW 18:50:02 71° NW 18:55:59 13° NE
DMSP B5D1-3 4.4 18:47:40 10° NNE 18:52:48 71° ESE 18:57:53 10° S
Tiangong 0.2 18:53:52 10° SSW 18:55:40 14° S 18:55:41 14° S
SL-16 R/B 2.2 18:55:26 10° NNW 19:01:04 60° NE 19:03:58 28° SE
Cosmos 2227 Rocket 2.2 18:55:52 10° S 19:01:20 54° ESE 19:05:16 19° NE
Cosmos 773 Rocket 3.9 18:59:00 10° SSW 19:04:16 83° ESE 19:09:35 10° NNE
Cosmos 1346 Rocket 3.8 19:00:57 10° S 19:02:49 27° SSE 19:02:49 27° SSE
Cosmos 2208 Rocket 3.9 18:59:16 10° SSW 19:04:29 78° ESE 19:09:50 10° NNE
Tsikada Rocket 4.4 19:02:50 10° SSE 19:08:21 37° E 19:13:57 10° NNE
CZ-4 R/B 2.5 19:17:56 29° NNE 19:17:56 29° NNE 19:19:59 10° N
Okean O Rocket 3.9 19:20:31 12° NNE 19:20:31 12° NNE 19:20:59 10° NNE
ARIANE 6 FM1 Upper Stage 2.5 19:17:16 10° NW 19:21:05 67° NNE 19:21:05 67° NNE
CZ-4B R/B 3.4 19:26:09 44° ENE 19:26:09 44° ENE 19:30:56 10° N
Terra 3.1 19:30:49 26° NNE 19:30:49 26° NNE 19:33:19 10° N
Cosmos 1544 Rocket 3.4 19:25:09 10° N 19:29:30 87° E 19:30:03 68° SSE
Cosmos 1816 Rocket 4.4 19:24:14 10° S 19:30:24 90° NNE 19:36:41 10° N
CZ-4B DEB 4.1 19:29:06 47° SE 19:30:37 68° ENE 19:36:03 10° N
CSL-04 Debris 4.0 19:30:41 31° SSE 19:33:25 84° ENE 19:38:52 10° NNW
Cosmos 2034 Rocket 3.9 19:28:18 10° N 19:34:31 86° W 19:40:43 10° S
Cosmos 1782 3.6 19:32:56 10° NNW 19:36:23 45° W 19:37:19 36° SW
Cosmos 2228 4.2 19:32:48 10° NNW 19:36:44 40° W 19:40:40 10° SSW
TSX-5 4.0 19:31:55 10° NNW 19:37:15 85° ENE 19:37:23 83° ESE
Cosmos 1975 Rocket 3.8 19:33:17 10° SSW 19:37:31 52° WNW 19:41:46 10° N
RESURS DK-1 4.1 19:33:56 10° NNW 19:35:40 21° N 19:35:40 21° N
CSL-04 Rocket 3.5 19:35:11 28° SSE 19:38:03 85° WSW 19:43:22 10° NNW
Cosmos 44 Rocket 3.6 19:35:21 10° SW 19:40:18 68° NW 19:41:49 44° NNE
Lacrosse 5 rocket 2.7 19:37:26 10° WNW 19:39:50 26° NNW 19:39:50 26° NNW
MOS 1 4.2 19:41:21 62° E 19:41:38 63° ENE 19:47:15 10° N
Cosmos 1634 Rocket 3.9 19:35:36 10° N 19:41:55 65° ENE 19:43:02 55° SE
Cosmos 2297 Rocket 3.4 19:40:53 10° WSW 19:46:12 40° NW 19:51:33 10° NNE
Cosmos 1943 3.4 19:43:22 10° NNW 19:48:32 54° NE 19:48:32 54° NE
ATLAS 2AS CENTAUR R/B 3.9 19:47:48 10° NW 19:53:35 28° N 19:55:21 25° NNE
BREEZE-M DEB (TANK) 3.9 19:37:41 10° WSW 19:55:20 65° S 19:56:30 55° SE
ERS-1 Rocket 3.6 20:02:08 46° N 20:02:08 46° N 20:05:40 10° NNW
CZ-4C R/B 3.6 19:57:55 10° WNW 20:02:15 29° NNW 20:04:22 23° NNE
BREEZE-M DEB (TANK) 4.3 19:58:04 10° SW 20:02:55 58° SE 20:04:47 50° ESE
Cosmos 972 Rocket 4.2 19:58:33 10° NNW 20:02:46 65° NNW 20:02:46 65° NNW
USA 267 3.7 20:02:29 42° NE 20:04:11 53° N 20:10:30 10° W
Cosmos 2279 Rocket 4.1 19:58:09 10° N 20:03:20 57° NNE 20:03:20 57° NNE
Cosmos 2263 Rocket 2.3 20:08:21 10° SW 20:13:31 71° WSW 20:13:31 71° WSW
ADEOS 4.2 20:23:43 52° NW 20:23:43 52° NW 20:27:50 10° NNW
SPOT 5 4.4 20:24:55 28° SW 20:26:22 34° W 20:31:00 10° NNW
Cosmos 2344 3.4 20:25:25 10° SW 20:33:04 81° NW 20:33:48 72° NNE
SL-16 R/B 3.9 20:40:05 10° NW 20:44:47 27° WSW 20:45:53 26° WSW
Cosmos 2227 Rocket 3.6 20:40:32 10° WSW 20:45:38 34° NW 20:47:09 29° NNW
Terra 4.3 21:09:26 18° NW 21:09:26 18° NW 21:10:49 10° NNW
ATLAS 2AS CENTAUR R/B 4.3 21:39:28 10° NW 21:42:46 28° NNW 21:42:46 28° NNW
